www.pogodaiklimat.ru

Погода и климат >> Архив погоды >> Австралия >> Broome Airport


ПОГОДА в Broome Airport

  • Прогноз погоды в Broome Airport
  • Монитор погоды в Broome Airport
  • Климат города

АРХИВ ПОГОДЫ в Broome Airport

Время (UTC), дата Ветер
(напр.,м/с)
 
Видим.   Явления Облачность Т
(С)
Тd
(С)
f
(%)
Тe
(С)
Тes
(С)
Комфортность P
(гПа)
Po
(гПа)
Тmin
(С)
Tmax
(С)
R
(мм)
R24
(мм)
S
(см)
01 8.12 З 6 н/о 10/0
[]
+32.9 +23.6 58 +44 +46 опасность
перегрева
1005.3 1004.3 +28.8
03 8.12 З 6 н/о н/о +32.6 +22.9 57 +43 +43 опасность
перегрева
1004.6 1003.6
04 8.12 СЗ 6 н/о н/о +32.6 +23.7 60 +44 +44 опасность
перегрева
1004.1 1003.1
06 8.12 СЗ 6 н/о н/о +32.3 +23.8 61 +44 +44 опасность
перегрева
1002.9 1001.9
07 8.12 СЗ 6 н/о н/о +32.6 +23.9 60 +44 +44 опасность
перегрева
1002.2 1001.2
09 8.12 З 6 н/о н/о +30.8 +25.0 71 +44 +44 опасность
перегрева
1001.6 1000.6
10 8.12 СЗ 6 н/о н/о +29.9 +25.2 76 +43 +43 опасность
перегрева
1002.6 1001.6
12 8.12 СЗ 6 н/о н/о +29.1 +25.7 82 +43 +43 опасность
перегрева
1004.3 1003.3
13 8.12 СЗ 5 н/о 1/0
[]
+29.0 +25.9 83 +43 +43 опасность
перегрева
1004.9 1003.9 +34.0
15 8.12 СЗ 4 н/о н/о +28.7 +26.2 86 +43 +43 опасность
перегрева
1005.4 1004.4
16 8.12 СЗ 5 н/о 1/1 200 м
[]
+28.4 +26.2 88 +43 +43 опасность
перегрева
1004.7 1003.7
18 8.12 СЗ 3 н/о н/о +28.2 +26.1 88 +42 +42 опасность
перегрева
1004.2 1003.2
19 8.12 СВ 3 н/о 1/1 300 м
[]
+27.2 +25.8 92 +40 +40 очень
душно
1004.9 1003.9
21 8.12 С 4 н/о н/о +26.7 +25.4 93 +39 +39 очень
душно
1004.8 1003.8
22 8.12 С 3 н/о 1/0
[]
+26.9 +25.5 92 +39 +40 очень
душно
1006.0 1005.0
00 9.12 СЗ 5 н/о н/о +30.1 +25.9 78 +45 +45 опасность
перегрева
1006.5 1005.5
01 9.12 СЗ 6 н/о 10/10 300 м
[]
+31.3 +25.4 71 +46 +46 опасность
перегрева
1007.1 1006.1 +26.6
03 9.12 СЗ 8 н/о н/о +31.7 +25.4 69 +46 +46 опасность
перегрева
1006.2 1005.2
04 9.12 СЗ 9 н/о н/о +31.7 +25.4 69 +46 +46 опасность
перегрева
1005.5 1004.5
06 9.12 СЗ 8 н/о н/о +30.9 +25.1 71 +44 +44 опасность
перегрева
1004.4 1003.4
07 9.12 СЗ 8 н/о 1/0
[]
+30.9 +24.8 70 +44 +46 опасность
перегрева
1003.8 1002.8
09 9.12 СЗ 7 н/о н/о +29.8 +25.3 77 +44 +44 опасность
перегрева
1003.9 1002.9
10 9.12 СЗ 6 н/о 9/9 300 м
[]
+29.4 +25.3 79 +43 +43 опасность
перегрева
1004.4 1003.4
12 9.12 СЗ 5 н/о н/о +28.8 +24.8 79 +41 +41 опасность
перегрева
1005.8 1004.8
13 9.12 С 5 н/о 6/6 300 м
[]
+28.7 +25.0 80 +41 +41 опасность
перегрева
1006.3 1005.3 +33.2
15 9.12 СЗ 5 н/о н/о +28.4 +25.0 82 +41 +41 опасность
перегрева
1006.1 1005.1
16 9.12 СЗ 5 н/о 6/6 300 м
[]
+28.2 +25.2 84 +41 +41 опасность
перегрева
1005.6 1004.6
18 9.12 СЗ 6 н/о н/о +28.3 +24.7 81 +40 +40 очень
душно
1004.4 1003.4
19 9.12 СЗ 5 н/о 10/10 300 м
[]
+28.5 +24.6 79 +40 +40 очень
душно
1004.9 1003.9
21 9.12 Ю 3 н/о н/о +28.7 +24.4 78 +41 +41 опасность
перегрева
1006.9 1005.9
22 9.12 Ю 4 н/о 3/3 300 м
[]
+28.9 +24.8 79 +41 +42 опасность
перегрева
1006.9 1005.9
00 10.12 В 5 н/о н/о +32.4 +23.5 59 +43 +43 опасность
перегрева
1007.4 1006.4
01 10.12 В 5 н/о н/о +35.0 +22.4 48 +44 +44 опасность
перегрева
1007.2 1006.2 +28.1
03 10.12 ЮВ 5 н/о н/о +37.8 +22.2 41 +46 +46 опасность
перегрева
1006.0 1005.0
04 10.12 З 6 н/о 1/0 2000 м
[]
+36.9 +23.7 47 +48 +57 опасность
перегрева
1005.0 1004.0
06 10.12 СЗ 7 н/о н/о +33.4 +26.0 65 +49 +49 опасность
перегрева
1003.6 1002.6
07 10.12 СЗ 8 н/о н/о +32.5 +25.5 67 +47 +47 опасность
перегрева
1002.9 1001.9
09 10.12 СЗ 7 н/о н/о +31.0 +25.8 74 +46 +46 опасность
перегрева
1002.8 1001.8
10 10.12 СЗ 7 н/о н/о +29.8 +26.0 80 +45 +45 опасность
перегрева
1003.2 1002.2
12 10.12 СЗ 7 н/о н/о +29.1 +25.6 81 +43 +43 опасность
перегрева
1005.2 1004.2
13 10.12 СЗ 6 н/о 8/8 300 м
[]
+28.8 +25.5 82 +42 +42 опасность
перегрева
1005.9 1004.9 +38.6
15 10.12 СЗ 4 н/о н/о +28.7 +25.6 83 +42 +42 опасность
перегрева
1006.2 1005.2
16 10.12 З 4 н/о 8/8 300 м
[]
+28.9 +25.9 84 +43 +43 опасность
перегрева
1005.6 1004.6
18 10.12 З 6 н/о н/о +29.1 +25.6 81 +43 +43 опасность
перегрева
1005.2 1004.2
19 10.12 З 5 н/о 10/10 300 м
[]
+29.2 +25.4 80 +43 +43 опасность
перегрева
1005.4 1004.4
21 10.12 З 4 н/о н/о +29.1 +24.8 78 +42 +42 опасность
перегрева
1006.2 1005.2
22 10.12 З 4 н/о 10/10 300 м
[]
+29.7 +25.0 76 +43 +43 опасность
перегрева
1007.0 1006.0
00 11.12 СЗ 5 н/о н/о +30.8 +25.1 72 +45 +45 опасность
перегрева
1007.4 1006.4
01 11.12 СЗ 6 н/о н/о +30.9 +25.1 71 +44 +44 опасность
перегрева
1007.5 1006.5 +28.7
03 11.12 СЗ 6 н/о н/о +31.4 +25.2 70 +45 +45 опасность
перегрева
1007.0 1006.0
04 11.12 СЗ 6 н/о 1/1 300 м
[]
+32.1 +25.3 67 +46 +53 опасность
перегрева
1006.6 1005.6
06 11.12 СЗ 7 н/о н/о +31.8 +25.0 67 +45 +45 опасность
перегрева
1005.5 1004.5
07 11.12 СЗ 6 н/о н/о +31.6 +24.9 68 +45 +45 опасность
перегрева
1004.9 1003.9
09 11.12 СЗ 7 н/о н/о +30.4 +25.3 74 +44 +44 опасность
перегрева
1004.6 1003.6
10 11.12 СЗ 6 н/о н/о +29.7 +25.6 79 +44 +44 опасность
перегрева
1005.0 1004.0
12 11.12 СЗ 4 н/о н/о +29.1 +26.0 83 +44 +44 опасность
перегрева
1006.6 1005.6
13 11.12 СЗ 5 н/о 10/10 300 м
[]
+29.0 +25.9 83 +43 +43 опасность
перегрева
1007.3 1006.3 +33.1
15 11.12 С 3 н/о н/о +28.5 +25.7 85 +42 +42 опасность
перегрева
1007.2 1006.2
16 11.12 СЗ 4 н/о 10/10 300 м
[]
+28.8 +25.1 80 +42 +42 опасность
перегрева
1006.6 1005.6
18 11.12 СЗ 4 н/о н/о +28.6 +24.9 80 +41 +41 опасность
перегрева
1004.6 1003.6
19 11.12 СВ 3 н/о 10/0
[]
+28.2 +25.4 85 +41 +41 опасность
перегрева
1005.5 1004.5
21 11.12 СЗ 4 н/о н/о +28.3 +25.5 85 +42 +42 опасность
перегрева
1005.3 1004.3
22 11.12 З 5 н/о 10/10 300 м
[]
+29.0 +25.3 80 +42 +42 опасность
перегрева
1006.8 1005.8
00 12.12 З 5 н/о н/о +30.8 +25.1 72 +45 +45 опасность
перегрева
1006.5 1005.5
01 12.12 СЗ 7 н/о н/о +31.3 +25.1 70 +45 +45 опасность
перегрева
1006.3 1005.3 +27.8
03 12.12 СЗ 6 н/о н/о +31.4 +25.2 70 +45 +45 опасность
перегрева
1005.2 1004.2
04 12.12 СЗ 6 н/о н/о +31.7 +25.2 69 +46 +46 опасность
перегрева
1004.6 1003.6
06 12.12 СЗ 7 н/о н/о +31.8 +25.5 69 +46 +46 опасность
перегрева
1003.7 1002.7
07 12.12 СЗ 8 н/о 3/3 300 м
[]
+31.7 +25.4 69 +46 +47 опасность
перегрева
1003.5 1002.5
09 12.12 СЗ 7 н/о н/о +30.2 +24.6 72 +43 +43 опасность
перегрева
1003.7 1002.7
10 12.12 СЗ 6 н/о 1/1 300 м
[]
+29.4 +24.8 76 +42 +42 опасность
перегрева
1003.9 1002.9
12 12.12 СЗ 6 н/о н/о +28.8 +25.5 82 +42 +42 опасность
перегрева
1004.3 1003.3
13 12.12 СЗ 4 н/о 3/3 300 м
[]
+28.7 +25.7 84 +43 +43 опасность
перегрева
1004.9 1003.9 +32.8
15 12.12 СЗ 4 н/о н/о +28.7 +26.0 85 +43 +43 опасность
перегрева
1005.2 1004.2
16 12.12 СЗ 5 н/о 4/4 300 м
[]
+28.6 +25.9 85 +43 +43 опасность
перегрева
1004.4 1003.4
18 12.12 З 5 н/о н/о +28.6 +25.5 83 +42 +42 опасность
перегрева
1004.5 1003.5
19 12.12 З 6 н/о 3/3 300 м
[]
+28.8 +25.0 80 +42 +42 опасность
перегрева
1004.5 1003.5
21 12.12 СЗ 4 н/о н/о +28.4 +25.4 84 +42 +42 опасность
перегрева
1004.9 1003.9
22 12.12 СЗ 4 н/о 3/3 300 м
[]
+28.8 +25.1 80 +42 +42 опасность
перегрева
1005.4 1004.4
00 13.12 СЗ 5 н/о н/о +30.4 +24.4 70 +42 +42 опасность
перегрева
1006.5 1005.5
01 13.12 СЗ 6 н/о н/о +31.3 +24.6 68 +44 +44 опасность
перегрева
1006.0 1005.0 +28.4
03 13.12 СЗ 8 н/о н/о +31.5 +24.7 67 +44 +44 опасность
перегрева
1005.8 1004.8
04 13.12 СЗ 8 н/о н/о +32.8 +25.3 65 +47 +47 опасность
перегрева
1005.2 1004.2
06 13.12 СЗ 8 н/о н/о +31.7 +25.1 68 +45 +45 опасность
перегрева
1004.3 1003.3
07 13.12 СЗ 8 н/о 5/5 300 м
[]
+31.6 +24.5 66 +44 +45 опасность
перегрева
1004.1 1003.1
09 13.12 СЗ 7 н/о н/о +30.4 +24.1 69 +42 +42 опасность
перегрева
1004.3 1003.3
10 13.12 СЗ 7 н/о 1/1 300 м
[]
+29.5 +24.6 75 +42 +42 опасность
перегрева
1004.3 1003.3
12 13.12 СЗ 7 н/о н/о +28.9 +24.5 77 +41 +41 опасность
перегрева
1004.8 1003.8
13 13.12 СЗ 6 н/о 6/6 300 м
[]
+28.7 +24.8 79 +41 +41 опасность
перегрева
1005.3 1004.3 +33.5
15 13.12 СЗ 6 н/о н/о +28.6 +25.0 81 +41 +41 опасность
перегрева
1005.0 1004.0
16 13.12 СЗ 3 н/о 10/10 600 м
[]
+28.6 +24.7 79 +41 +41 опасность
перегрева
1006.2 1005.2
18 13.12 СЗ 4 н/о н/о +28.3 +24.4 79 +40 +40 очень
душно
1004.2 1003.2
19 13.12 З 6 н/о 5/5 300 м
[]
+28.2 +24.5 80 +40 +40 очень
душно
1003.8 1002.8
21 13.12 З 4 н/о н/о +28.3 +24.0 78 +39 +39 очень
душно
1005.0 1004.0
22 13.12 З 3 н/о 4/4 300 м
[]
+28.9 +24.5 77 +41 +41 опасность
перегрева
1005.8 1004.8
00 14.12 ЮВ 3 н/о н/о +31.3 +24.3 66 +43 +43 опасность
перегрева
1006.4 1005.4
01 14.12 З 3 н/о н/о +31.5 +24.5 66 +44 +44 опасность
перегрева
1006.0 1005.0 +28.3
03 14.12 З 5 н/о н/о +32.3 +24.5 64 +45 +45 опасность
перегрева
1004.8 1003.8
04 14.12 СЗ 7 н/о н/о +31.4 +24.7 68 +45 +45 опасность
перегрева
1004.0 1003.0
06 14.12 СЗ 9 н/о н/о +31.4 +24.6 67 +44 +44 опасность
перегрева
1003.2 1002.2
07 14.12 СЗ 9 н/о н/о +31.4 +24.4 66 +44 +44 опасность
перегрева
1002.9 1001.9
09 14.12 СЗ 8 н/о н/о +30.3 +24.9 73 +43 +43 опасность
перегрева
1003.3 1002.3
10 14.12 СЗ 7 н/о 4/4 300 м
[]
+29.3 +24.6 76 +42 +42 опасность
перегрева
1003.9 1002.9
12 14.12 СЗ 6 н/о н/о +29.0 +24.6 77 +41 +41 опасность
перегрева
1004.8 1003.8
13 14.12 СЗ 6 н/о 10/10 300 м
[]
+29.0 +24.6 77 +41 +41 опасность
перегрева
1005.5 1004.5
15 14.12 СЗ 4 н/о н/о +28.7 +24.5 78 +41 +41 опасность
перегрева
1005.6 1004.6
16 14.12 СЗ 5 н/о 5/5 300 м
[]
+28.6 +24.6 79 +41 +41 опасность
перегрева
1004.8 1003.8
18 14.12 СЗ 6 н/о н/о +28.4 +24.4 79 +40 +40 очень
душно
1003.9 1002.9
19 14.12 СЗ 4 н/о 1/1 300 м
[]
+28.1 +24.7 82 +40 +40 очень
душно
1003.6 1002.6
21 14.12 СЗ 4 н/о н/о +28.1 +24.7 82 +40 +40 очень
душно
1004.9 1003.9
22 14.12 СЗ 3 н/о 4/4 300 м
[]
+28.6 +24.3 78 +40 +41 очень
душно
1005.3 1004.3

 

Местоположение метеостанции Broome Airport (Западная Австралия, Австралия): широта -17.95 долгота 122.23 высота над уровнем моря 9 м.

В архиве по умолчанию представлена погода в Broome Airport за последнюю неделю. Архивные данные за месяц целиком и за предыдущие месяцы, начиная с января 2011 года, Вы можете получить, выбрав интересующий диапазон дат из раскрывающегося списка и нажав кнопку "Ввод!".


*Определитесь, кто Вы:
робот инопланетянин человек

Внимание! Время в таблицах - всемирное. Для получения местного времени необходимо прибавить поправку, которая в Broome Airport равна 8 ч.

Смотрите также архив погоды в соседних городах и на ближайших метеорологических станциях:

Погода в West Roebuck (Западная Австралия, Австралия) (11 км)
Погода в Derby Aero (Северная территория, Австралия) (165 км)
Погода в Curtin Aero (Западная Австралия, Австралия) (173 км)
Погода в Mandora (Западная Австралия, Австралия) (246 км)
Погода в Adele Island (Западная Австралия, Австралия) (289 км)
Погода в Rowley Shoals (Западная Австралия, Австралия) (351 км)
Погода в Fitzroy Crossing Aero (Западная Австралия, Австралия) (353 км)
Погода в Telfer Aero (Западная Австралия, Австралия) (418 км)
Погода в Marble Bar (Западная Австралия, Австралия) (443 км)
Погода в Browse Island (Западная Австралия, Австралия) (450 км)

Пояснения к столбцам:

Ветер - указаны скорость ветра в м/с - средняя за 10 мин, порывы в срок и между сроками (в фигурных скобках) и направление, откуда дует ветер: С - северный, СВ - северо-восточный, В - восточный, ЮВ - юго-восточный, Ю - южный, ЮЗ - юго-западный, З - западный, СЗ - северо-западный.
Видимость - горизонтальная дальность видимости в метрах или километрах. При видимости от 1 до 10 км при отсутствии осадков обычно наблюдается дымка, при ухудшении видимости до 1 км и менее - туман. В сухую погоду видимость может ухудшаться дымом, пылью или мглою.
Явления - указаны атмосферные явления, наблюдавшиеся в срок или в последний час перед сроком; фигурными скобками обозначены явления, наблюдавшиеся между сроками (за 1-3 часа до срока); квадратными скобками обозначены град или гололедные отложения с указанием их диаметра в мм.
Облачность - указаны через наклонную черту общая и нижняя облачность в баллах и высота нижней границы облаков в метрах; квадратными скобками обозначены формы облаков: Ci - перистые, Cs - перисто-слоистые, Cc - перисто-кучевые, Ac - высококучевые, As - высокослоистые, Sc - слоисто-кучевые, Ns - слоисто-дождевые, Cu - кучевые, Cb - кучево-дождевые. Подробнее классификацию облаков см. в Атласе облаков (PDF).
T - Температура воздуха - температура, измеренная на высоте 2 м над землей.
Td - Температура точки росы - температура, при понижении до которой содержащийся в воздухе водяной пар достигнет насыщения.
f - Относительная влажность воздуха - влажноcть воздуха, измеренная на высоте 2 м над землей.
Te - Эффективная температура - температура, которую ощущает одетый по сезону человек в тени. Характеристика душности погоды. При расчете учитывается влияние влажности воздуха и скорости ветра на теплоощущения человека.
Tes - Эффективная температура на солнце - температура, которую ощущает человек, с поправкой на солнечный нагрев. Характеристика знойности погоды. Зависит от высоты солнца над горизонтом, облачности и скорости ветра. Ночью, в пасмурную погоду, а также при ветре 12 м/с и более поправка равна нулю.
P - Атмосферное давление - приведенное к уровню моря атмосферное давление.
Po - Атмосферное давление - измеренное на уровне метеостанции атмосферное давление.
Tmin - Минимальная температура - минимум температуры воздуха на высоте 2 м над землей.
Tmax - Максимальная температура - максимум температуры воздуха на высоте 2 м над землей.
R - Количество осадков - Количество выпавших осадков за период времени, мм. При наведении курсора мыши на число - период времени, за который выпало указанное количество осадков.
R24 - Количество осадков - Количество выпавших осадков за 24 часа, мм.
S - Снежный покров - Высота снежного покрова, см. При наведении курсора мыши на число - состояние снежного покрова и степень покрытия местности в баллах.